Preview of NWS' New Version of Forecast
This preview is not operational and should not be used for support decisions.

Regional Weather Roundup (RWR)

Issued by National Weather Service (NWS)

                            
316 
ASUS45 KCYS 260710
RWRWY 

WYOMING REGIONAL WEATHER ROUNDUP
NATIONAL WEATHER SERVICE CHEYENNE WY
100 AM MDT TUE MAR 26 2019

NOTE:  "FAIR" INDICATES FEW OR NO CLOUDS BELOW 12,000 FEET
WITH NO SIGNIFICANT WEATHER AND/OR OBSTRUCTIONS TO VISIBILITY.

WYZ001-260800-
YELLOWSTONE NATIONAL PARK
  
CITY           SKY/WX    TMP DP  RH WIND       PRES   REMARKS
LK YELLOWSTONE   N/A     21  19  92 CALM      30.22S                  
W YELLOWSTONE  NOT AVBL                                               

$$
WYZ002>013-054>058-071-098>099-260800-
NORTHERN WYOMING
  
CITY           SKY/WX    TMP DP  RH WIND       PRES   REMARKS
JACKSON        FAIR      31  23  72 SE5       30.21F WCI  26          
CODY           FAIR      42  22  44 S9        30.12F                  
GREYBULL       FAIR      36  30  79 CALM      30.12S                  
WORLAND        FAIR      41  29  62 SE13      30.12S                  
SHERIDAN       FAIR      34  31  88 E3        30.08F                  
BUFFALO        FAIR      35  27  72 W9        30.10F WCI  28          
GILLETTE       FAIR      36  33  89 S12       30.11F WCI  28          
HULETT         FAIR      36  34  93 CALM      30.14F                  
NEWCASTLE      FOG       30  30 100 SE8       30.20  VSB 1/4 WCI  23  

$$
WYZ014>020-022>026-101>103-260800-
CENTRAL WYOMING
  
CITY           SKY/WX    TMP DP  RH WIND       PRES   REMARKS
BIG PINEY      FAIR      21  17  84 CALM      30.27F                  
PINEDALE       FAIR      19  18  93 NW3       30.29                   
DUBOIS         FAIR      32  16  51 NW14G21   30.16  WCI  22          
LANDER         FAIR      39  15  37 SW7       30.15S WCI  34          
RIVERTON       FAIR      32  20  61 CALM      30.16F                  
CASPER         FAIR      39  23  52 SW18      30.16F WCI  30          
DOUGLAS        FAIR      32  25  75 SE5       30.19F WCI  27          

$$
WYZ021-027>030-104>119-260800-
SOUTHERN WYOMING
  
CITY           SKY/WX    TMP DP  RH WIND       PRES   REMARKS
EVANSTON       FAIR      30  15  53 E9        30.22F WCI  22          
KEMMERER       FAIR      23  14  68 N10       30.24  WCI  12          
ROCK SPRINGS   FAIR      29  20  69 CALM      30.25S                  
DIXON          FAIR      31  17  56 SE3       30.30F                  
RAWLINS        FAIR      32  19  58 S7        30.25F WCI  26          
SARATOGA       FAIR      30  18  59 SE12      30.28F WCI  21          
LARAMIE        FAIR      25  16  68 SE10      30.26F WCI  15          
CHEYENNE       FAIR      35  25  66 SW17      30.26F WCI  25          
TORRINGTON     FAIR      34  31  88 SE6       30.22S WCI  29          
PINE BLUFFS    FAIR      28  25  86 SW5       30.28S WCI  23          

$$